Location: Unspecified
(40.7945°N, 111.1337°W)
Time: 21:04:41
(UTC-06:00)

Vanguard 1 - Pass Details

Date: 01 July 2019
Orbit: 653 x 3830 km, 34.3° (Epoch: 15 July)

Event Time Altitude Azimuth Distance (km) Brightness Sun altitude
Rises 21:52:34 0° 190° (S) 7,148 14.1 -8.8°
Reaches altitude 10° 21:58:53 10° 177° (S) 6,510 13.8 -9.7°
Maximum altitude 22:14:02 23° 133° (SE) 5,833 13.3 -11.8°
Drops below altitude 10° 22:29:09 10° 91° (E) 6,612 13.9 -13.8°
Sets 22:35:25 0° 79° (E) 7,297 14.2 -14.6°
